Simultaneous Nadir Overpasses (SNOs) Predictions

Prediction of SNOs between AQUA and METOP-B Satellite Orbit:

Table of predicted SNOs for the next 14.0 days since TLE Epoch: 1/31/2020
Index Date (AQUA) Time (AQUA) Lat,Lon (AQUA) SZA (AQUA ) Date (METOP-B) Time (METOP-B) Lat,Lon (METOP-B) SZA (METOP-B ) Distance(km) Time Diff (sec)
1 02/02/2020 18:05:18 -73.74, 83.05 89.35 02/02/2020 18:04:08 -73.72, 83.02 89.36 3.15 70
2 02/02/2020 18:54:46 73.78,-109.40 90.69 02/02/2020 18:54:46 73.79,-109.48 90.69 2.33 0
3 02/02/2020 19:44:14 -73.89, 58.00 89.21 02/02/2020 19:45:26 -73.89, 58.11 89.22 3.41 72
4 02/05/2020 13:39:33 -73.75, 149.46 90.17 02/05/2020 13:38:30 -73.75, 149.50 90.17 1.45 63
5 02/05/2020 14:29:01 73.80, -43.01 89.88 02/05/2020 14:29:08 73.82, -43.00 89.89 1.27 7
6 02/05/2020 15:18:33 -74.11, 123.94 89.80 02/05/2020 15:19:44 -74.12, 125.07 89.85 34.55 71
7 02/08/2020 09:13:48 -73.72,-144.02 91.07 02/08/2020 09:12:54 -73.73,-144.14 91.05 3.65 54
8 02/08/2020 10:03:17 73.83, 23.38 89.04 02/08/2020 10:03:31 73.84, 23.47 89.05 3.19 14
9 02/08/2020 10:52:55 -74.44,-170.39 90.31 02/08/2020 10:54:01 -74.45,-167.69 90.43 80.34 66
10 02/11/2020 04:48:04 -73.74, -77.64 91.95 02/11/2020 04:47:17 -73.76, -77.66 91.93 1.69 47
11 02/11/2020 05:37:32 73.81, 89.87 88.11 02/11/2020 05:37:55 73.82, 89.82 88.12 1.92 23
12 02/14/2020 00:22:19 -73.77, -11.26 92.85 02/14/2020 00:21:39 -73.78, -11.19 92.84 2.36 40
13 02/14/2020 01:11:47 73.84, 156.23 87.21 02/14/2020 01:12:17 73.84, 156.28 87.21 1.73 30




NCC Satellite Simultaneous Nadir Overpasses (SNOs) Prediction Service
